Find Gorizont

NORAD ID: 23880 Int'l Des: 1996-034 Owner: GPKS Country: RU operational
HEOCIRCULAR

Live-Position

3D-Globus wird geladen...

Über Gorizont

Beschreibung wird geladen...

Nächste Überflüge

Passes for default location (London). Set your location on the main map for personalized predictions.

Höhenverlauf

Loading altitude history...

Zweizeiliger Elementsatz

1 23880U 96034A 26106.46989213 -.00000141 00000-0 00000+0 0 9996
2 23880 14.3909 355.4564 0009200 357.0056 181.1259 1.00223325109418
Epoch: 16. Apr. 2026 • Age: 13 hours

Aktueller Status

Höhe 35762.0 km
Geschwindigkeit 3.08 km/s
Subsatellitenpunkt 3.36°N, 159.33°E
Startdatum 25. Mai 1996
Alter 29.8 years
Typ other

Technische Details

Klassifizierung Payload
Masse 2120.00 kg
Trockenmasse 2000.00 kg
Gesamtmasse 2120.00 kg
Länge 5.50 m
Durchmesser 3.30 m
Spannweite 9.50 m
Form Cyl + 2 Pan
Hersteller NPOPMR
Bus-Typ Gorizont
Phasenstatus In Orbit
Besitzer/Staat GPKS/RU

Most Searched